Location: Colorado Springs
(38.8340°N, 104.8210°W)
Time: 22:59:56
(UTC-07:00)

OTV 5 (USA 277) - Pass Details

Date: 12 October 2017
Orbit: 404 x 417 km, 43.0° (Epoch: 07 September)

Event Time Altitude Azimuth Distance (km) Brightness Sun altitude
Rises 19:09:04 0° 251° (WSW) 2,347 ? -9.4°
Reaches altitude 10° 19:11:10 10° 252° (WSW) 1,487 ? -9.8°
Maximum altitude 19:14:32 81° 338° (NNW) 425 ? -10.5°
Enters shadow 19:17:10 16° 67° (ENE) 1,194 ? -11.0°
